KC0RIG Weather Reports


Display with metric or nautical units.
time (UTC)temp
F
wind
direction
speed
MPH
gust
MPH
rain 1hr
in
rain 24hr
in
rain mn
in
humidity
%
barometer
mb
20260507032004 42 254 1.0 3.0 0.00 0.00 0.00 62 1018.4
20260507031004 42 233 0.0 2.0 0.00 0.00 0.00 59 1018.5
20260507025004 43 226 1.0 3.0 0.00 0.00 0.00 61 1018.5
20260507024004 44 233 2.0 3.0 0.00 0.00 0.00 57 1018.5
20260507023004 44 251 2.0 3.0 0.00 0.00 0.00 58 1018.5
20260507022004 44 223 1.0 6.0 0.00 0.00 0.00 55 1018.5
20260507021004 44 204 0.0 2.0 0.00 0.00 0.00 53 1018.5
20260507020004 45 254 1.0 2.0 0.00 0.00 0.00 57 1018.5
20260507015004 46 206 0.0 3.0 0.00 0.00 0.00 54 1018.4
20260507014004 47 147 1.0 3.0 0.00 0.00 0.00 52 1018.4
20260507012004 48 235 1.0 2.0 0.00 0.00 0.00 50 1018.3
20260507010004 48 165 2.0 3.0 0.00 0.00 0.00 46 1018.3
20260507005004 49 167 2.0 7.0 0.00 0.00 0.00 44 1018.4
20260507004003 50 131 6.0 12.0 0.00 0.00 0.00 39 1018.4
20260507003004 51 132 5.0 10.0 0.00 0.00 0.00 38 1018.3
20260507002004 52 140 7.0 15.0 0.00 0.00 0.00 38 1018.4
20260507001004 52 128 12.0 18.0 0.00 0.00 0.00 35 1018.5
20260507000004 53 136 12.0 16.0 0.00 0.00 0.00 36 1018.5
20260506234004 52 144 7.0 13.0 0.00 0.00 0.00 40 1018.6
20260506233004 52 144 10.0 17.0 0.00 0.00 0.00 38 1018.6
20260506232004 52 145 9.0 17.0 0.00 0.00 0.00 39 1018.7
20260506231004 52 143 10.0 16.0 0.00 0.00 0.00 39 1018.7
20260506230003 52 132 12.0 16.0 0.00 0.00 0.00 38 1018.8
20260506225003 51 131 5.0 12.0 0.00 0.00 0.00 41 1018.8
20260506223004 51 149 10.0 14.0 0.00 0.00 0.00 42 1019.1
20260506221004 52 133 10.0 15.0 0.00 0.00 0.00 40 1019.2
20260506215005 51 124 14.0 20.0 0.00 0.00 0.00 40 1019.4
20260506214004 51 139 10.0 14.0 0.00 0.00 0.00 40 1019.4
20260506213004 51 118 14.0 29.0 0.00 0.00 0.00 41 1019.5
20260506212004 51 136 12.0 20.0 0.00 0.00 0.00 39 1019.7
20260506211004 52 132 14.0 20.0 0.00 0.00 0.00 40 1019.8
20260506210004 51 124 11.0 18.0 0.00 0.00 0.00 41 1019.9
20260506205004 52 95 14.0 18.0 0.00 0.00 0.00 42 1020.1
20260506204004 50 93 14.0 23.0 0.00 0.00 0.00 41 1020.2
20260506203004 52 107 14.0 21.0 0.00 0.00 0.00 41 1020.3
20260506202004 51 100 17.0 25.0 0.00 0.00 0.00 42 1020.5
20260506201004 51 124 12.0 18.0 0.00 0.00 0.00 42 1020.5
20260506200004 50 117 10.0 23.0 0.00 0.00 0.00 42 1020.6
20260506194004 50 118 13.0 20.0 0.00 0.00 0.00 44 1020.9
20260506193003 49 103 13.0 23.0 0.00 0.00 0.00 44 1021.0
20260506192004 49 105 10.0 18.0 0.00 0.00 0.00 46 1021.1
20260506191004 49 136 10.0 25.0 0.00 0.00 0.00 43 1021.0
20260506190005 49 129 11.0 21.0 0.00 0.00 0.00 46 1021.2
20260506185004 48 124 13.0 20.0 0.00 0.00 0.00 44 1021.2
20260506184004 47 127 10.0 18.0 0.00 0.00 0.00 45 1021.3
20260506183005 48 142 13.0 20.0 0.00 0.00 0.00 46 1021.4
20260506182004 49 143 16.0 26.0 0.00 0.00 0.00 46 1021.4
20260506181004 47 117 13.0 21.0 0.00 0.00 0.00 47 1021.6
20260506180005 47 114 14.0 24.0 0.00 0.00 0.00 47 1021.7
20260506175004 46 122 14.0 22.0 0.00 0.00 0.00 47 1021.8
20260506172004 46 133 15.0 20.0 0.00 0.00 0.00 47 1021.8
20260506171003 45 135 13.0 24.0 0.00 0.00 0.00 48 1021.8
20260506170004 45 136 14.0 20.0 0.00 0.00 0.00 48 1021.8
20260506164003 44 130 14.0 22.0 0.00 0.00 0.00 48 1021.9
20260506163004 44 140 12.0 23.0 0.00 0.00 0.00 50 1021.9
20260506162004 44 125 14.0 21.0 0.00 0.00 0.00 50 1021.9
20260506161004 44 134 12.0 21.0 0.00 0.00 0.00 51 1021.9
20260506160003 44 137 14.0 21.0 0.00 0.00 0.00 50 1021.9
20260506155004 44 127 15.0 22.0 0.00 0.00 0.00 50 1021.9
20260506154004 44 128 14.0 20.0 0.00 0.00 0.00 51 1021.9
20260506153004 44 107 13.0 18.0 0.00 0.00 0.00 51 1021.9
20260506152004 44 116 12.0 16.0 0.00 0.00 0.00 51 1022.0
20260506151004 43 146 12.0 18.0 0.00 0.00 0.00 52 1022.0
20260506150004 43 127 13.0 18.0 0.00 0.00 0.00 52 1021.9
20260506145004 43 127 13.0 20.0 0.00 0.00 0.00 52 1022.0
20260506144003 43 123 10.0 16.0 0.00 0.00 0.00 54 1021.9
20260506143004 42 129 12.0 18.0 0.00 0.00 0.00 52 1021.8
20260506142004 43 132 13.0 20.0 0.00 0.00 0.00 54 1021.8
20260506140004 42 146 7.0 12.0 0.00 0.00 0.00 60 1021.8
20260506135003 42 143 7.0 12.0 0.00 0.00 0.00 62 1021.7
20260506134004 41 125 6.0 9.0 0.00 0.00 0.00 65 1021.7
20260506133004 40 123 5.0 9.0 0.00 0.00 0.00 65 1021.7
20260506131004 39 126 5.0 9.0 0.00 0.00 0.00 69 1021.7
20260506130005 39 100 4.0 9.0 0.00 0.00 0.00 70 1021.7
20260506125004 38 100 5.0 6.0 0.00 0.00 0.00 73 1021.6
20260506124004 37 119 3.0 6.0 0.00 0.00 0.00 75 1021.5
20260506123004 37 104 4.0 5.0 0.00 0.00 0.00 78 1021.4
20260506121004 35 81 1.0 3.0 0.00 0.00 0.00 80 1020.9
20260506115004 35 99 2.0 3.0 0.00 0.00 0.00 80 1020.8
20260506114004 34 123 3.0 5.0 0.00 0.00 0.00 80 1020.8
20260506113003 34 130 3.0 3.0 0.00 0.00 0.00 80 1020.6
20260506112004 34 127 3.0 3.0 0.00 0.00 0.00 81 1020.5
20260506110004 33 83 3.0 3.0 0.00 0.00 0.00 81 1020.4
20260506105003 33 106 2.0 3.0 0.00 0.00 0.00 82 1020.2
20260506104004 33 116 3.0 5.0 0.00 0.00 0.00 82 1020.3
20260506102004 32 103 2.0 3.0 0.00 0.00 0.00 86 1020.2
20260506100004 29 244 1.0 2.0 0.00 0.00 0.00 88 1019.9
20260506094004 27 106 0.0 1.0 0.00 0.00 0.00 87 1019.9
20260506093004 27 93 1.0 2.0 0.00 0.00 0.00 85 1019.9
20260506091003 28 75 1.0 2.0 0.00 0.00 0.00 83 1019.7
20260506084004 29 250 2.0 3.0 0.00 0.00 0.00 85 1018.9
20260506083004 28 269 1.0 2.0 0.00 0.00 0.00 83 1019.4
20260506082003 29 281 1.0 2.0 0.00 0.00 0.00 81 1019.6
20260506081003 29 73 1.0 2.0 0.00 0.00 0.00 81 1019.5
20260506073004 30 144 1.0 2.0 0.00 0.00 0.00 79 1019.1
20260506072004 30 199 0.0 2.0 0.00 0.00 0.00 79 1019.2
20260506071003 31 85 2.0 3.0 0.00 0.00 0.00 79 1019.4
20260506062003 33 110 1.0 2.0 0.00 0.00 0.00 74 1019.2
20260506061003 34 137 2.0 3.0 0.00 0.00 0.00 73 1019.1
20260506051005 36 144 3.0 3.0 0.00 0.00 0.00 68 1018.5
20260506045004 37 145 3.0 3.0 0.00 0.00 0.00 66 1018.3
20260506044004 37 152 3.0 6.0 0.00 0.00 0.00 65 1018.3
20260506043003 37 140 3.0 3.0 0.00 0.00 0.00 65 1018.4
20260506042004 37 143 3.0 5.0 0.00 0.00 0.00 63 1018.4
20260506041003 38 152 3.0 3.0 0.00 0.00 0.00 60 1018.4
20260506040004 39 157 3.0 6.0 0.00 0.00 0.00 58 1018.4
20260506035004 40 149 3.0 6.0 0.00 0.00 0.00 56 1018.4
20260506034004 42 148 5.0 8.0 0.00 0.00 0.00 53 1018.3
20260506033004 43 155 4.0 9.0 0.00 0.00 0.00 51 1018.3